F4IED-13 Weather Reports


time (UTC)temp
C
wind
direction
speed
KPH
gust
KPH
rain 1hr
cm
rain 24hr
cm
rain mn
cm
humidity
%
barometer
mb
20260505003940 13 4 3.2 8.0 0.00 0.15 0.00 91 1009.5
20260505002937 13 9 3.2 8.0 0.00 0.15 0.00 91 1009.6
20260505001936 13 7 3.2 8.0 0.00 0.15 0.00 91 1009.6
20260505000934 13 18 3.2 9.7 0.00 0.15 0.00 91 1009.7
20260504235932 13 14 3.2 9.7 0.00 0.15 0.00 91 1009.7
20260504234930 13 355 4.8 9.7 0.00 0.15 0.00 91 1009.6
20260504233927 13 358 4.8 9.7 0.00 0.15 0.00 90 1009.5
20260504232925 13 7 3.2 9.7 0.00 0.15 0.00 90 1009.5
20260504231923 13 10 3.2 8.0 0.00 0.15 0.00 90 1009.7
20260504230920 13 16 4.8 9.7 0.00 0.15 0.00 90 1009.9
20260504225917 13 19 4.8 8.0 0.00 0.15 0.00 90 1010.1
20260504224936 13 4 3.2 6.4 0.00 0.15 0.00 90 1010.3
20260504223913 13 356 3.2 9.7 0.00 0.15 0.00 90 1010.4
20260504222911 13 353 4.8 11.3 0.00 0.15 0.00 90 1010.5
20260504221909 13 5 3.2 6.4 0.00 0.15 0.00 90 1010.5
20260504220907 13 353 3.2 8.0 0.00 0.15 0.00 90 1010.6
20260504215905 13 4 3.2 6.4 0.00 0.15 0.15 89 1010.7
20260504214903 13 354 3.2 9.7 0.00 0.15 0.15 89 1010.8
20260504213900 13 357 3.2 6.4 0.00 0.15 0.15 89 1010.9
20260504212858 13 354 3.2 6.4 0.00 0.15 0.15 89 1010.9
20260504211856 13 4 3.2 4.8 0.00 0.15 0.15 89 1010.9
20260504210855 13 3 1.6 3.2 0.00 0.15 0.15 89 1010.9
20260504205852 13 18 3.2 6.4 0.00 0.15 0.15 89 1010.9
20260504204850 13 358 3.2 6.4 0.00 0.15 0.15 89 1010.9
20260504203848 13 7 3.2 6.4 0.00 0.15 0.15 88 1010.9
20260504202905 13 14 3.2 6.4 0.00 0.15 0.15 88 1010.8
20260504201843 13 14 3.2 6.4 0.00 0.15 0.15 88 1010.8
20260504200841 13 20 1.6 3.2 0.00 0.15 0.15 88 1010.9
20260504195838 13 12 3.2 6.4 0.00 0.15 0.15 88 1010.9
20260504194836 13 17 3.2 6.4 0.00 0.15 0.15 88 1011.0
20260504193835 13 355 3.2 4.8 0.00 0.15 0.15 87 1011.0
20260504192832 13 18 1.6 3.2 0.00 0.15 0.15 87 1011.0
20260504191830 14 22 1.6 3.2 0.00 0.15 0.15 87 1010.9
20260504190848 14 21 1.6 3.2 0.00 0.15 0.15 87 1010.8
20260504185826 14 357 3.2 6.4 0.00 0.15 0.15 87 1010.8
20260504184824 14 356 1.6 4.8 0.00 0.15 0.15 86 1010.8
20260504183823 14 351 1.6 3.2 0.00 0.18 0.15 86 1010.9
20260504182820 14 352 1.6 3.2 0.00 0.20 0.15 86 1010.8
20260504181818 14 351 1.6 4.8 0.00 0.20 0.15 86 1010.7
20260504180816 14 349 3.2 6.4 0.00 0.20 0.15 85 1010.6
20260504175814 15 355 1.6 3.2 0.00 0.20 0.15 85 1010.6
20260504174812 15 4 1.6 4.8 0.00 0.20 0.15 85 1010.6
20260504173810 15 357 1.6 3.2 0.00 0.20 0.15 85 1010.5
20260504172808 15 10 1.6 3.2 0.00 0.20 0.15 85 1010.5
20260504171806 15 4 1.6 4.8 0.03 0.20 0.15 85 1010.5
20260504170803 15 356 1.6 3.2 0.03 0.20 0.15 85 1010.5
20260504150740 15 24 3.2 6.4 0.03 0.13 0.08 85 1011.0
20260504140728 16 15 3.2 9.7 0.00 0.13 0.05 86 1011.2
20260504130717 15 45 1.6 6.4 0.03 0.13 0.05 86 1011.4
20260504110650 16 7 3.2 11.3 0.00 0.08 0.03 84 1012.0
20260504081614 14 195 1.6 3.2 0.03 0.08 0.03 90 1012.1
20260504080611 13 149 1.6 3.2 0.00 0.08 0.00 90 1012.1
20260504050534 12 5 1.6 3.2 0.00 0.08 0.00 90 1010.9
20260504045532 12 90 1.6 1.6 0.00 0.08 0.00 90 1010.9
20260504044531 12 174 1.6 1.6 0.00 0.08 0.00 89 1010.9
20260504043528 12 197 1.6 3.2 0.00 0.08 0.00 90 1011.0
20260504042526 12 21 1.6 1.6 0.00 0.08 0.00 90 1010.9
20260504041544 12 35 1.6 1.6 0.00 0.08 0.00 90 1011.0
20260504040522 12 142 1.6 1.6 0.00 0.08 0.00 90 1011.1
20260504035520 12 90 1.6 1.6 0.00 0.08 0.00 90 1011.1
20260504034518 12 135 1.6 3.2 0.00 0.08 0.00 90 1011.2
20260504033516 12 200 1.6 1.6 0.00 0.08 0.00 89 1011.3
20260504032535 12 0.0 1.6 0.00 0.08 0.00 89 1011.2
20260504031532 12 90 1.6 3.2 0.00 0.08 0.00 89 1011.3
20260504030510 12 123 1.6 1.6 0.00 0.08 0.00 89 1011.4
20260504025507 12 124 1.6 1.6 0.00 0.08 0.00 89 1011.4
20260504024507 12 126 1.6 1.6 0.00 0.08 0.00 89 1011.3
20260504023503 12 45 1.6 1.6 0.00 0.08 0.00 89 1011.3
20260504022501 12 90 1.6 1.6 0.00 0.08 0.00 89 1011.3
20260504021458 12 0.0 1.6 0.00 0.08 0.00 89 1011.4
20260504020457 12 0.0 1.6 0.00 0.08 0.00 89 1011.5
20260504015454 12 144 1.6 1.6 0.00 0.08 0.00 89 1011.3
20260504014452 12 90 1.6 1.6 0.00 0.08 0.00 89 1011.3
20260504013450 12 169 1.6 3.2 0.00 0.08 0.00 89 1011.3
20260504012448 12 158 1.6 4.8 0.00 0.08 0.00 89 1011.2
20260504011446 12 122 1.6 1.6 0.00 0.08 0.00 89 1011.2
20260504010443 12 90 1.6 1.6 0.00 0.08 0.00 89 1011.2
20260504005441 12 163 1.6 1.6 0.00 0.08 0.00 89 1011.5